User: anonymous   Login
Location: Andrest
(43.3200°N, 0.0641°E)
Time: 21:21:42
(UTC+00:00)
Language:

Meteor 1-11 Rocket - Orbit

View from above orbital plane
View from above orbital plane
View from above satellite
View from above satellite

Ground track
Ground track

The orbit data is extracted from the following two-line orbital elements,

1 05918U 72022B   21058.53419231 -.00000012  00000-0 -15124-4 0  9992
2 05918  81.2351  98.6074 0059622 129.0167 231.6332 14.05879587507601
Epoch (UTC): 27 February 2021 12:49:14
Eccentricity: 0.0059622
inclination: 81.2351°
perigee height: 830 km
apogee height: 917 km
right ascension of ascending node: 98.6074°
argument of perigee: 129.0167°
revolutions per day: 14.05879587
mean anomaly at epoch: 231.6332°
orbit number at epoch: 50760

The dashed part of the orbit path shows where the satellite is in the earth's shadow,  

DLR